Terminal Aerodrome Forecast
Issued by NWS

Home | Current Version | Previous Version | Text Only | Print | Product List | Glossary On
Versions: 1 2 3 4 5 6 7 8 9 10 11 12 13 14 15 16 17 18 19 20 21
000
FTUS46 KMTR 292320
TAFSNS
TAF
KSNS 292320Z 3000/3024 29011KT P6SM SCT015
      TEMPO 3000/3002 BKN015
     FM300200 29007KT P6SM BKN010
     FM300400 29005KT P6SM OVC007
     FM301600 12006KT P6SM OVC010
     FM301800 VRB03KT P6SM SCT015
     FM302000 29010KT P6SM SKC=

USA.gov is the U.S. government's official web portal to all federal, state and local government web resources and services.